ATLAS H R/B

Satellite information

Favourite Embed

Satellite Type and Status

ROCKET BODYIN ORBIT

Key statistics

Satellite ATLAS H R/B at a glance.

Uptime

13875

Days in orbit

Revolutions

≈ 13.5

Per day

Orbit

LEO

Low Earth Orbit

Inclination

63.3

Latest

Satellite identification and parameters

Extended collection of information and parameters for ATLAS H R/B.

Object identification

Identified? True

Debris? False

Object name: ATLAS H R/B

International designator: 1987-043B

Object number (NORAD): 17998

Object ID (CCSDS): 17998

Country: UNITED STATES OF AMERICA (US)

Current information (Y/N): Y

RCS size: MEDIUM

Orbital parameters

Period: 106.657 minutes

Inclination: 63.3163 deg

SMA: 7449.968 km

Apoapsis: 1611.368 km

Periapsis: 532.298 km

RAAN: 211.6924 deg

Eccentricy: 0.0724211

Argument of periapsis: 111.9096 deg

Mean anomaly: 256.0505 deg

Mean motion: 13.50116295 rev/day

Mean motion (dot): 0.00001638 rev/day2

B* drag term: 0.00050691 1/REarth

Two-line elements (TLE)

Creation date: May 10, 2025, 2:32 a.m.

Reference frame: TEME

Reference center: EARTH

Epoch: May 9, 2025, 6:02 p.m. UTC

TLE line 0: 0 ATLAS H R/B

TLE line 1: 1 17998U 87043B 25129.75139020 .00001638 00000-0 50691-3 0 9994

TLE line 2: 2 17998 63.3163 211.6924 0724211 111.9096 256.0505 13.50116295296763

Live tracking on map

Real-time ground track for satellite ATLAS H R/B.

In-orbit conjunctions

A list of the most updated potential collisions computed for object ATLAS H R/B.

Target Orbit TCA Probability of collision Miss distance Type
FENGYUN 1C DEB SSO 2025-04-26 05:00:27 0.0001204857 988.0 (m) DEBRIS
COSMOS 718 LEO 2025-04-19 01:54:17 0.0001066698 156.0 (m) PAYLOAD
BREEZE-KM R/B SSO 2025-03-23 08:45:30 0.01384258 23.0 (m) ROCKET BODY

Associated space launch

The Parcae satellites were passive ELINT satellites. MSD satellites were dispensers of triplets of ocean surveillance satellites.

ATLAS H R/B was lifted into orbit during the mission ‘Atlas H | Parcae 9A,B,C & MSD 9’, on board a Atlas H space rocket.

The launch took place on May 15, 1987, 3:45 p.m. from Space Launch Complex 3E.

For more information about the launch, click the button.

Launch to space Atlas H | Parcae 9A,B,C & MSD 9
Atlas H | Parcae 9A,B,C & MSD 9

Agency: N/A

Status: Launch Successful

Launch date: May 15, 1987, 3:45 p.m. UTC

Rocket: Atlas H

Launch pad: Space Launch Complex 3E

Location: Vandenberg SFB, CA, USA

...

Latest news about this satellite

There are no fresh news available about this satellite. Check back as we update our databases every day.


Newsletter sign-up

Weekly statistics, charts and insights to help you stay on top of the space industry.